TimeCDT,TemperatureF,Dew PointF,Humidity,Sea Level PressureIn,VisibilityMPH,Wind Direction,Wind SpeedMPH,Gust SpeedMPH,PrecipitationIn,Events,Conditions,WindDirDegrees,DateUTC
12:15 AM,68.9,64.8,87,30.09,10.0,WSW,4.6,-,N/A,,Mostly Cloudy,240,2013-08-01 05:15:00
12:35 AM,68.2,64.0,87,30.09,10.0,WNW,4.6,-,N/A,,Overcast,290,2013-08-01 05:35:00
12:55 AM,67.6,62.6,84,30.09,10.0,WNW,5.8,-,N/A,,Scattered Clouds,300,2013-08-01 05:55:00
1:15 AM,67.1,62.2,84,30.08,10.0,NW,5.8,-,N/A,,Clear,310,2013-08-01 06:15:00
1:35 AM,66.0,61.7,86,30.07,10.0,NNW,3.5,-,N/A,,Clear,340,2013-08-01 06:35:00
1:55 AM,64.8,61.0,88,30.06,10.0,Calm,Calm,-,N/A,,Clear,0,2013-08-01 06:55:00
2:15 AM,64.9,61.3,88,30.07,10.0,Calm,Calm,-,N/A,,Clear,0,2013-08-01 07:15:00
2:35 AM,63.7,61.0,91,30.07,10.0,Calm,Calm,-,N/A,,Clear,0,2013-08-01 07:35:00
2:55 AM,63.3,60.4,90,30.08,10.0,West,4.6,-,N/A,,Scattered Clouds,270,2013-08-01 07:55:00
3:15 AM,63.7,60.8,90,30.09,10.0,West,3.5,-,N/A,,Scattered Clouds,280,2013-08-01 08:15:00
3:35 AM,64.6,61.7,90,30.08,10.0,WNW,4.6,-,N/A,,Mostly Cloudy,300,2013-08-01 08:35:00
3:55 AM,63.7,60.8,90,30.09,10.0,West,4.6,-,N/A,,Scattered Clouds,270,2013-08-01 08:55:00
4:15 AM,62.6,59.9,91,30.08,10.0,WNW,3.5,-,N/A,,Scattered Clouds,300,2013-08-01 09:15:00
4:35 AM,61.9,59.4,91,30.08,10.0,NW,3.5,-,N/A,,Clear,320,2013-08-01 09:35:00
4:55 AM,61.9,59.4,91,30.08,10.0,Calm,Calm,-,N/A,,Clear,0,2013-08-01 09:55:00
5:15 AM,62.2,59.7,91,30.09,10.0,West,3.5,-,N/A,,Clear,270,2013-08-01 10:15:00
5:35 AM,61.7,59.9,94,30.09,7.0,West,3.5,-,N/A,,Clear,270,2013-08-01 10:35:00
5:55 AM,61.3,59.4,93,30.08,10.0,WSW,3.5,-,N/A,,Clear,250,2013-08-01 10:55:00
6:15 AM,61.5,59.5,93,30.09,7.0,WSW,3.5,-,N/A,,Clear,240,2013-08-01 11:15:00
6:35 AM,61.0,59.0,93,30.09,7.0,West,3.5,-,N/A,,Clear,260,2013-08-01 11:35:00
6:55 AM,61.7,59.5,93,30.09,5.0,Calm,Calm,-,N/A,,Clear,0,2013-08-01 11:55:00
7:15 AM,63.3,61.3,93,30.09,7.0,Calm,Calm,-,N/A,,Clear,0,2013-08-01 12:15:00
7:35 AM,64.8,62.2,92,30.09,10.0,Calm,Calm,-,N/A,,Clear,0,2013-08-01 12:35:00
7:55 AM,67.5,62.8,85,30.09,10.0,Calm,Calm,-,N/A,,Clear,0,2013-08-01 12:55:00
8:15 AM,69.6,64.4,83,30.09,10.0,Calm,Calm,-,N/A,,Clear,0,2013-08-01 13:15:00
8:35 AM,71.2,64.4,79,30.10,10.0,Calm,Calm,-,N/A,,Clear,0,2013-08-01 13:35:00
8:55 AM,72.7,64.4,75,30.10,10.0,West,4.6,-,N/A,,Clear,260,2013-08-01 13:55:00
9:15 AM,74.3,65.3,73,30.10,10.0,SW,3.5,-,N/A,,Clear,220,2013-08-01 14:15:00
9:35 AM,75.0,63.3,67,30.10,10.0,SSW,4.6,-,N/A,,Clear,210,2013-08-01 14:35:00
9:55 AM,76.1,63.3,64,30.10,10.0,SW,4.6,-,N/A,,Clear,220,2013-08-01 14:55:00
10:15 AM,76.6,60.4,57,30.10,10.0,WSW,3.5,-,N/A,,Clear,250,2013-08-01 15:15:00
10:35 AM,77.7,60.6,55,30.10,10.0,SSW,3.5,-,N/A,,Clear,210,2013-08-01 15:35:00
10:55 AM,78.4,60.1,53,30.10,10.0,Calm,Calm,-,N/A,,Clear,0,2013-08-01 15:55:00
11:15 AM,79.0,57.4,47,30.09,10.0,Calm,Calm,-,N/A,,Clear,0,2013-08-01 16:15:00
11:35 AM,79.2,59.0,50,30.09,10.0,WSW,4.6,-,N/A,,Clear,240,2013-08-01 16:35:00
11:55 AM,79.9,57.0,45,30.09,10.0,West,3.5,-,N/A,,Clear,260,2013-08-01 16:55:00
12:15 PM,80.2,58.5,47,30.09,10.0,Calm,Calm,-,N/A,,Clear,0,2013-08-01 17:15:00
12:35 PM,81.0,58.8,47,30.09,10.0,WSW,5.8,-,N/A,,Clear,240,2013-08-01 17:35:00
12:55 PM,81.5,58.1,45,30.08,10.0,SSW,5.8,-,N/A,,Scattered Clouds,200,2013-08-01 17:55:00
1:15 PM,81.3,57.2,44,30.08,10.0,South,4.6,-,N/A,,Scattered Clouds,170,2013-08-01 18:15:00
1:35 PM,82.0,57.0,42,30.07,10.0,SW,4.6,-,N/A,,Scattered Clouds,230,2013-08-01 18:35:00
1:55 PM,82.9,58.1,43,30.06,10.0,West,4.6,-,N/A,,Clear,260,2013-08-01 18:55:00
2:15 PM,82.2,57.7,43,30.05,10.0,SSW,3.5,-,N/A,,Clear,200,2013-08-01 19:15:00
2:35 PM,81.9,57.9,44,30.04,10.0,SSW,8.1,-,N/A,,Clear,200,2013-08-01 19:35:00
2:55 PM,82.4,58.3,44,30.03,10.0,South,6.9,-,N/A,,Clear,180,2013-08-01 19:55:00
3:15 PM,83.1,60.1,46,30.03,10.0,SW,6.9,-,N/A,,Clear,220,2013-08-01 20:15:00
3:35 PM,81.9,58.3,45,30.02,10.0,SSW,9.2,-,N/A,,Clear,200,2013-08-01 20:35:00
3:55 PM,82.8,58.3,43,30.01,10.0,South,5.8,-,N/A,,Clear,180,2013-08-01 20:55:00
4:15 PM,82.6,58.8,44,30.01,10.0,SSE,8.1,-,N/A,,Clear,160,2013-08-01 21:15:00
4:35 PM,82.6,59.5,45,30.01,10.0,South,6.9,-,N/A,,Clear,190,2013-08-01 21:35:00
4:55 PM,81.5,60.8,49,30.01,10.0,South,5.8,-,N/A,,Clear,190,2013-08-01 21:55:00
5:15 PM,81.7,62.1,51,30.01,10.0,South,5.8,-,N/A,,Clear,170,2013-08-01 22:15:00
5:35 PM,80.8,62.6,54,29.99,10.0,South,5.8,-,N/A,,Clear,180,2013-08-01 22:35:00
5:55 PM,80.6,63.9,57,29.99,10.0,South,6.9,-,N/A,,Clear,190,2013-08-01 22:55:00
6:15 PM,79.9,64.4,59,29.99,10.0,South,5.8,-,N/A,,Clear,190,2013-08-01 23:15:00
6:35 PM,79.3,65.1,62,29.99,10.0,SSW,4.6,-,N/A,,Clear,200,2013-08-01 23:35:00
6:55 PM,78.6,64.8,62,29.99,10.0,SSW,3.5,-,N/A,,Clear,200,2013-08-01 23:55:00
7:15 PM,77.2,65.5,67,29.98,10.0,SSW,3.5,-,N/A,,Clear,210,2013-08-02 00:15:00
7:35 PM,75.7,66.7,74,29.98,10.0,SSW,3.5,-,N/A,,Clear,200,2013-08-02 00:35:00
7:55 PM,75.2,66.2,73,29.97,10.0,South,3.5,-,N/A,,Clear,190,2013-08-02 00:55:00
8:35 PM,73.9,65.3,74,29.95,10.0,SSE,4.6,-,N/A,,Clear,160,2013-08-02 01:35:00
8:55 PM,73.0,65.3,77,29.95,10.0,South,3.5,-,N/A,,Clear,180,2013-08-02 01:55:00
9:15 PM,73.0,65.3,77,29.95,10.0,South,4.6,-,N/A,,Clear,170,2013-08-02 02:15:00
9:55 PM,71.8,65.7,81,29.96,10.0,SSW,3.5,-,N/A,,Clear,200,2013-08-02 02:55:00
10:15 PM,70.9,65.7,83,29.95,10.0,South,3.5,-,N/A,,Clear,170,2013-08-02 03:15:00
10:35 PM,70.7,65.8,85,29.94,10.0,SSE,4.6,-,N/A,,Clear,150,2013-08-02 03:35:00
10:55 PM,71.2,65.5,82,29.95,10.0,South,4.6,-,N/A,,Clear,190,2013-08-02 03:55:00
11:15 PM,71.4,65.3,81,29.94,10.0,South,4.6,-,N/A,,Clear,170,2013-08-02 04:15:00
11:35 PM,71.2,64.8,80,29.93,10.0,South,5.8,-,N/A,,Clear,190,2013-08-02 04:35:00
11:55 PM,71.4,64.6,79,29.92,10.0,South,3.5,-,N/A,,Clear,180,2013-08-02 04:55:00